Location: Cruquius
(52.3348°N, 4.6319°E)
Time: 10:13:01
(UTC+00:00)

NOSS 3-3 (C) - Pass Details

Date: 28 September 2021
Orbit: 801 x 1411 km, 63.4° (Epoch: 05 October)

Event Time Altitude Azimuth Distance (km) Brightness Sun altitude
Rises 19:35:27 0° 314° (NW) 3,935 8.4 -20.2°
Reaches altitude 10° 19:38:02 10° 310° (NW) 3,057 7.7 -20.6°
Maximum altitude 19:45:17 58° 234° (SW) 1,464 5.0 -21.6°
Enters shadow 19:50:58 21° 164° (SSE) 2,634 5.8 -22.4°
